Change the Weather History Date:

Monday, January 7, 2013

  Actual Average Record
Temperature  
Mean Temperature 49 °F 50 °F  
Max Temperature 57 °F 56 °F 65 °F (2003)
Min Temperature 41 °F 44 °F 31 °F (1973)
Degree Days  
Heating Degree Days 16 15  
Month to date heating degree days 122 105  
Since 1 July heating degree days 1117 1115  
Cooling Degree Days 0 0  
Month to date cooling degree days 0 0  
Year to date cooling degree days 0 0  
Moisture  
Dew Point 45 °F    
Average Humidity 83    
Maximum Humidity 93    
Minimum Humidity 72    
Precipitation  
Precipitation 0.00 in 0.14 in 0.87 in (1956)
Month to date precipitation 0.06 0.96  
Year to date precipitation 0.06 0.96  
Since 1 July precipitation 11.06 8.53  
Sea Level Pressure  
Sea Level Pressure 30.20 in    
Wind  
Wind Speed 3 mph (NW)    
Max Wind Speed 12 mph    
Max Gust Speed 14 mph    
Visibility 9 miles    
Events      
T = Trace of Precipitation, MM = Missing Value Source: NWS Daily Summary

Daily Weather History Graph

Daily Weather History Graph

Search for Another Location

Airport or City:

Trip Planner

Search our weather history database for the weather conditions in past years. The results will help you decide how hot, cold, wet, or windy it might be!

Date:

Astronomy

Jan. 07, 2013 Rise Set
Actual Time 7:24 AM PST 5:07 PM PST
Civil Twilight 6:55 AM PST 5:36 PM PST
Nautical Twilight 6:23 AM PST 6:08 PM PST
Astronomical Twilight 5:51 AM PST 6:40 PM PST
Moon 2:56 AM PST (1/7) 1:21 PM PST (1/7)
Length of Visible Light 10h 40m
Length of Day
9h 42m
Waning Crescent, 21% of the Moon is Illuminated
Jan 7
Waning Crescent
Jan 11
New
Jan 18
First Quarter
Jan 26
Full
Feb 3
Last Quarter

Hourly Weather History & Observations

Time (PST) Temp. Windchill Dew Point Humidity Pressure Visibility Wind Dir Wind Speed Gust Speed Precip Events Conditions
12:56 AM 46.9 °F - 44.1 °F 90% 30.19 in 9.0 mi NW 3.5 mph - N/A   Clear
1:56 AM 44.1 °F - 41.0 °F 89% 30.19 in 8.0 mi Calm Calm - N/A   Partly Cloudy
2:56 AM 43.0 °F 39.5 °F 39.9 °F 89% 30.21 in 9.0 mi West 5.8 mph - N/A   Partly Cloudy
3:56 AM 43.0 °F - 39.9 °F 89% 30.20 in 9.0 mi Calm Calm - N/A   Clear
4:56 AM 41.0 °F 39.0 °F 39.0 °F 93% 30.21 in 9.0 mi SSW 3.5 mph - N/A   Partly Cloudy
5:56 AM 44.1 °F - 41.0 °F 89% 30.20 in 9.0 mi Calm Calm - N/A   Partly Cloudy
6:56 AM 42.1 °F - 39.9 °F 92% 30.22 in 10.0 mi Calm Calm - N/A   Mostly Cloudy
7:56 AM 43.0 °F - 39.9 °F 89% 30.24 in 9.0 mi Calm Calm - N/A   Mostly Cloudy
8:56 AM 45.0 °F - 42.1 °F 90% 30.24 in 9.0 mi Calm Calm - N/A   Mostly Cloudy
9:56 AM 46.9 °F - 43.0 °F 86% 30.26 in 9.0 mi ESE 5.8 mph - N/A   Mostly Cloudy
10:56 AM 48.9 °F - 44.1 °F 83% 30.27 in 9.0 mi NNE 3.5 mph - N/A   Mostly Cloudy
11:56 AM 50.0 °F - 44.1 °F 80% 30.22 in 9.0 mi NE 3.5 mph - N/A   Scattered Clouds
12:56 PM 50.0 °F - 45.0 °F 83% 30.20 in 9.0 mi East 5.8 mph - N/A   Mostly Cloudy
1:56 PM 51.1 °F - 45.0 °F 80% 30.18 in 9.0 mi East 5.8 mph - N/A   Mostly Cloudy
2:56 PM 57.0 °F - 48.9 °F 74% 30.18 in 10.0 mi West 8.1 mph - N/A   Mostly Cloudy
3:56 PM 55.9 °F - 48.9 °F 77% 30.17 in 10.0 mi West 9.2 mph - N/A   Mostly Cloudy
4:56 PM 55.0 °F - 48.9 °F 80% 30.17 in 10.0 mi WNW 6.9 mph - N/A   Mostly Cloudy
5:56 PM 54.0 °F - 48.9 °F 83% 30.17 in 10.0 mi WNW 5.8 mph - N/A   Mostly Cloudy
6:56 PM 53.1 °F - 48.9 °F 86% 30.17 in 10.0 mi West 4.6 mph - N/A   Mostly Cloudy
7:56 PM 52.0 °F - 48.0 °F 86% 30.17 in 10.0 mi WNW 4.6 mph - N/A   Mostly Cloudy
8:56 PM 51.1 °F - 48.0 °F 89% 30.18 in 10.0 mi Calm Calm - N/A   Scattered Clouds
9:56 PM 51.8 °F - 46.4 °F 82% 30.18 in 10.0 mi East 3.5 mph - N/A   Scattered Clouds
10:56 PM 50.0 °F - 46.0 °F 86% 30.19 in 10.0 mi Calm Calm - N/A   Scattered Clouds
11:56 PM 50.0 °F - 46.9 °F 89% 30.19 in 10.0 mi Calm Calm - N/A   Scattered Clouds